Hourly Data Report for May 02, 2016

All times are specified in Local Standard Time (LST). Add 1 hour to adjust for Daylight Saving Time where and when it is observed.

LA RONGE RCS
SASKATCHEWAN

55°08'47.020" N
105°16'13.030" W
378.60 m
4064149
71586
XOX

Download Data

Hourly Data (May 2016)
Hourly Data Report for May 2, 2016
TIME Temp Definition
°C
Dew Point Definition
°C
Rel Hum Definition
%
Wind Dir Definition
10's deg

Wind Spd Definition
km/h
Visibility Definition
km
Stn Press Definition
kPa
Hmdx Definition


Wind Chill Definition


Weather Definition


00:00 6.1 0.2 66 15 5   97.18     LegendNANA
01:00 6.9 -0.2 60 17 8   97.18     LegendNANA
02:00 5.0 -0.8 66 19 6   97.16     LegendNANA
03:00 5.0 -0.8 66 18 6   97.14     LegendNANA
04:00 4.2 -0.8 70 21 5   97.14     LegendNANA
05:00 2.6 -0.9 78   0   97.13     LegendNANA
06:00 1.4 -1.4 82   0   97.12     LegendNANA
07:00 5.0 0.3 72 0 1   97.14     LegendNANA
08:00 10.6 2.1 55 31 1   97.12     LegendNANA
09:00 14.8 -0.3 36 28 9   97.12     LegendNANA
10:00 17.9 -1.0 28 30 10   97.12     LegendNANA
11:00 20.3 -1.4 23 32 9   97.09     LegendNANA
12:00 22.2 -1.2 21 30 11   97.07     LegendNANA
13:00 23.5 -0.3 21 31 16   97.03     LegendNANA
14:00 24.1 0.4 21 33 17   97.01     LegendNANA
15:00 24.6 0.7 21 32 16   96.96     LegendNANA
16:00 24.4 1.1 22 36 23   96.95     LegendNANA
17:00 23.9 0.4 21 36 22   96.94     LegendNANA
18:00 23.5 0.0 21 36 19   96.96     LegendNANA
19:00 20.2 -0.9 24 5 11   97.00     LegendNANA
20:00 16.9 -0.7 30 4 5   97.04     LegendNANA
21:00 13.8 -0.6 37 5 4   97.08     LegendNANA
22:00 11.7 -0.9 41 4 4   97.13     LegendNANA
23:00 8.9 2.1 62 1 3   97.15     LegendNANA

Notes on Data Quality.

Legend

  • E = Estimated
  • M = Missing
  • NA = Not Available
Date modified: